Terminal Aerodrome Forecast
Issued by NWS Charleston, WV

Home | Current Version | Previous Version | Text Only | Print | Product List | Glossary On
Versions: 1 2 3 4 5 6 7 8 9 10 11 12 13 14 15 16 17 18 19 20 21 22 23 24 25 26 27 28 29 30 31 32 33 34 35 36 37 38 39 40 41 42 43 44 45 46 47 48 49 50
000
FTUS41 KRLX 180858 AAA
TAFCRW
TAF AMD
KCRW 180858Z 1809/1906 VRB03KT P6SM SHRA BKN040 OVC110
     FM181000 23005KT 4SM SHRA BKN030 OVC110
     FM181300 VRB03KT 3SM SHRA OVC015
     FM181600 23004KT P6SM VCSH BKN018 PROB30 1818/1822 4SM -TSRA
      BKN015CB BKN045
     FM182200 19004KT P6SM BKN045=

USA.gov is the U.S. government's official web portal to all federal, state and local government web resources and services.